Regional Weather Roundup
Issued by NWS Sterling, VA

Home | Current Version | Previous Version | Text Only | Print | Product List | Glossary Off
Versions: 1 2 3 4 5 6 7 8 9 10 11 12 13 14 15 16 17 18 19 20 21 22 23 24 25 26 27

000
ASUS41 KLWX 292110
RWRLWX

REGIONAL WEATHER ROUNDUP
NATIONAL WEATHER SERVICE BALTIMORE MD/WASHINGTON DC
500 PM EDT THU SEP 29 2016

Note: "FAIR" indicates few or no clouds below 12,000 feet
with no significant weather and/or obstructions to visibility.
 TC=TEMPERATURE CELSIUS

 * =Non NWS site. Station does not report precipitation (e.g. rain,
    snow, etc.), thunder, or fog.

DCZ001-MDZ009-015-VAZ040>042-051-053>054-292200-
WASHINGTON METRO

CITY           SKY/WX    TMP DP  RH WIND       PRES   REMARKS
WASHINGTON NAT CLOUDY    69  67  93 E13       30.14F
DULLES         LGT RAIN  67  65  93 E17G24    30.12S FOG
ANDREWS AFB    CLOUDY    66  64  94 E18G24    30.12F
FT BELVOIR     CLOUDY    69  64  84 VRB6      30.12S
QUANTICO       CLOUDY    72  65  78 E15       30.12R
COLLEGE PARK*  CLOUDY    64  63  94 E8        30.15S
LEESBURG*      CLOUDY    66  66 100 MISG      30.15S FOG
MANASSAS*      LGT RAIN  70  68  94 E9        30.12S
GAITHERSBURG*  CLOUDY    64  61  88 E6        30.19S

$$

MDZ006>007-011-014-292200-
BALTIMORE METRO

CITY           SKY/WX    TMP DP  RH WIND       PRES   REMARKS
BWI AIRPORT    LGT RAIN  65  63  93 E20       30.17S VSB 1
MD SCIENCE CTR   N/A     65  62  90 MISG      30.19R
MARTIN STATE   RAIN      66  64  94 E10G20    30.21R
ANNAPOLIS      LGT RAIN  69  65  86 E13G21    30.17R
FORT MEADE*    CLOUDY    64  63  94 E14G20    30.19R

$$

MDZ012-015-019>023-292200-
MARYLAND EASTERN SHORE

CITY           SKY/WX    TMP DP  RH WIND       PRES   REMARKS
OCEAN CITY     HVY RAIN N/A N/A N/A E21G36    30.14S
SALISBURY      LGT RAIN  66  65  96 NE20G29   30.13F
BAY BRIDGE AP* CLOUDY   N/A N/A N/A MISG      30.16R
CAMBRIDGE*     CLOUDY    66  63  88 E16G25    30.12S
EASTON*        CLOUDY    68  63  83 E15G28    30.18S

$$

MDZ017>025-292200-
SOUTHERN MARYLAND

CITY           SKY/WX    TMP DP  RH WIND       PRES   REMARKS
PATUXENT RIVER CLOUDY    70  64  81 E14G24    30.11S
ST INIGOES     CLOUDY    72  66  81 NE14G24   30.10S
LEONARDTOWN*   CLOUDY    68  63  83 E8        30.14R

$$

MDZ003>005-292200-
NORTH CENTRAL MARYLAND

CITY           SKY/WX    TMP DP  RH WIND       PRES   REMARKS
FREDERICK*     CLOUDY    66  66 100 E10       30.19R
HAGERSTOWN APT CLOUDY    66  60  81 E10G21    30.16S

$$

MDZ501>502-292200-
WESTERN MARYLAND

CITY           SKY/WX    TMP DP  RH WIND       PRES   REMARKS
OAKLAND*       PTSUNNY   55  55 100 E14G28    30.13S FOG
CUMBERLAND*    CLOUDY    64  64 100 NE8       30.16R

$$

VAZ025>031-292200-
SHENANDOAH VALLEY

CITY           SKY/WX    TMP DP  RH WIND       PRES   REMARKS
WINCHESTER*    CLOUDY    66  64  94 E14G23    30.10S FOG
FRONT ROYAL*   CLOUDY    66  64  94 E7G21     30.08R
LURAY*         DRIZZLE   70  70 100 NE5       30.07R
NEW MARKET*    CLOUDY   N/A N/A N/A E5        30.04S
STAUNTON*      CLOUDY    72  65  78 SE13      30.06S
WAYNESBORO*    CLOUDY    72  65  79 E10G17    30.05S

$$

WVZ021-048>050-054>055-292200-
EASTERN WEST VIRGINIA PANHANDLE

CITY           SKY/WX    TMP DP  RH WIND       PRES   REMARKS
MARTINSBURG    CLOUDY    65  62  90 E15       30.13S
PETERSBURG*    HVY RAIN  68  66  94 CALM      30.06S

$$

VAZ036>039-050-292200-
CENTRAL FOOTHILLS

CITY           SKY/WX    TMP DP  RH WIND       PRES   REMARKS
CHARLOTTESVILL HVY RAIN  71  68  90 E13G21    30.06R FOG
CULPEPER*      LGT RAIN  70  68  93 E7        30.10S
ORANGE*          N/A     72  70  94 NE12G22   30.09S
GORDONSVILLE*  CLOUDY    72  70  94 E12G22    30.06S
WARRENTON*     CLOUDY    70  64  80 NE10G16   30.10S

$$

VAZ055>057-292200-
NORTH AND CENTRAL PIEDMONT

CITY           SKY/WX    TMP DP  RH WIND       PRES   REMARKS
FREDERICKSBRG* CLOUDY    71  71 100 E10G18    30.09S
STAFFORD*      CLOUDY    69  67  95 E10       30.14S

$$

NCZ024-NYZ072-PAZ021-071-VAZ022-071-292200-
OTHER REGIONAL OBSERVATIONS

CITY           SKY/WX    TMP DP  RH WIND       PRES   REMARKS
NEW YORK CITY  CLOUDY    64  52  64 E9G17     30.37S
PHILADELPHIA   LGT RAIN  63  60  90 E22G33    30.25S
PITTSBURGH     CLOUDY    62  60  93 E13       30.07S
ROANOKE        CLOUDY    73  64  73 SE12      30.01F
RICHMOND       LGT RAIN  71  68  90 E10       30.06R FOG
RALEIGH        CLOUDY    76  68  76 SE6       30.00S

$$

ANZ530>537-292200-
MARINE OBSERVATIONS

STATION/POSITION TIME  TEMP    WIND        PRES
                       AIR SEA DIR/SP/G
                 (UTC) (F)     (DEG/KT/KT) (MB)
THOMAS PT LIGHT  2100   68 73   80/ 22/ 27 1022.5R
BALT KEY BRIDGE  2048   66      70/ 15/ 19 1022.0R
COVE POINT       2048   69     100/ 21/ 27 1020.2F
LEWISETTA        2048   72 73  100/ 25/ 29 1018.8F
SOLOMONS ISLAND  2048   71 74   70/ 15/ 19   N/A
PINEY POINT      2048           90/ 13/ 16   N/A

$$





USA.gov is the U.S. government's official web portal to all federal, state and local government web resources and services.